This demonstration page uses our WeatherBlox Daily Observations layout. Learn more.

Left ArrowRight Arrow

Hourly Observations for September 23, 2018

Temp ( °F °C ) Dew Point ( °F °C ) Humidity (%) Winds ( mph kmh ) Pressure ( in mb ) Visibility ( mi km ) Precip ( " mm )
12:53 am 00:53 Cloudy 59 15 56 13.3 90 90 ENE 5 7 30.18 1022 10 16 0.00 0.00
1:53 am 01:53 Clear 58 14.4 55 12.8 90 90 ENE 6 9 30.16 1021 10 16 0.00 0.00
2:53 am 02:53 Mostly Clear 57 13.9 54 12.2 90 90 E 5 7 30.15 1021 10 16 0.00 0.00
3:53 am 03:53 Clear 57 13.9 54 12.2 90 90 ENE 3 6 30.14 1021 10 16 0.00 0.00
4:53 am 04:53 Clear 57 13.9 54 12.2 90 90 ENE 3 6 30.13 1020 10 16 0.00 0.00
5:53 am 05:53 Clear 57 13.9 54 12.2 90 90 NE 3 6 30.13 1020 10 16 0.00 0.00
6:53 am 06:53 Clear 57 13.9 53 11.7 87 87 Calm 30.13 1020 10 16 0.00 0.00
7:53 am 07:53 Sunny 57 13.9 54 12.2 90 90 NE 5 7 30.13 1020 10 16 0.00 0.00
8:53 am 08:53 Sunny 57 13.9 54 12.2 90 90 VRB 5 7 30.14 1021 10 16 0.00 0.00
9:53 am 09:53 Sunny 59 15 55 12.8 87 87 ENE 5 7 30.16 1021 10 16 0.00 0.00
10:53 am 10:53 Sunny 60 15.6 55 12.8 84 84 NE 7 11 30.18 1022 10 16 0.00 0.00
11:53 am 11:53 Mostly Sunny 63 17.2 56 13.3 78 78 VRB 7 11 30.17 1022 10 16 0.00 0.00
12:53 pm 12:53 Sunny 67 19.4 56 13.3 68 68 NE 9 15 30.15 1021 10 16 0.00 0.00
1:53 pm 13:53 Mostly Cloudy 70 21.1 57 13.9 64 64 E 9 15 30.14 1021 10 16 0.00 0.00
2:53 pm 14:53 Mostly Sunny 70 21.1 57 13.9 64 64 ENE 5 7 30.11 1020 10 16 0.00 0.00
3:53 pm 15:53 Cloudy 71 21.7 58 14.4 63 63 ENE 7 11 30.10 1019 10 16 0.00 0.00
4:53 pm 16:53 Cloudy 72 22.2 58 14.4 61 61 E 9 15 30.09 1019 10 16 0.00 0.00
5:53 pm 17:53 Cloudy 71 21.7 57 13.9 61 61 E 7 11 30.10 1019 10 16 0.00 0.00
6:53 pm 18:53 Cloudy 70 21.1 57 13.9 64 64 E 7 11 30.10 1019 10 16 0.00 0.00
7:53 pm 19:53 Mostly Clear 66 18.9 57 13.9 73 73 E 6 9 30.10 1019 10 16 0.00 0.00
8:53 pm 20:53 Mostly Clear 62 16.7 58 14.4 86 86 E 5 7 30.11 1020 10 16 0.00 0.03
9:53 pm 21:53 Clear 61 16.1 58 14.4 90 90 E 3 6 30.12 1020 10 16 0.00 0.00
10:53 pm 22:53 Clear 61 16.1 57 13.9 87 87 E 3 6 30.13 1020 10 16 0.00 0.00
11:53 pm 23:53 Mostly Clear 62 16.7 57 13.9 84 84 E 5 7 30.13 1020 10 16 0.00 0.00

Powered by AerisWeather